[[{"header":{"parameterUnit":"m.s-1","parameterCategory":2,"la1":30.2991,"la2":30.254,"lo1":-89.0895,"lo2":-89.0444,"dy":0.0017,"dx":0.0017,"nx":28,"ny":28,"refTime":"2024-07-27T03:00:00:Z","depth":"0","parameterNumber":2,"parameterNumberName":"U-component_of_CURRENTS"},"data":[0,0,0,0,0,0,0,0,0,0,0,0,0,0,0,0,0,0,0,0,0,0,0,0,0,0,0,0,0,0,0,0,0,0,0,0,0,0,0,0,0,0,0,0,0,0,0,0,0,0,0,0,0,0,0,0,0,0,0.2866,0.2867,0,0.2922,0.2923,0.2923,0.2942,0.2942,0.2942,0.2942,0.2948,0.2949,0.2949,0,0,0,0,0,0,0,0,0,0,0,0,0,0.2754,0.2756,0.2866,0.2867,0.2868,0.2922,0.2923,0.2923,0.2942,0.2942,0.2942,0.2942,0.2948,0.2949,0.2949,0,0,0,0,0,0,0,0,0,0,0,0,0,0.2805,0.2757,0.2866,0.2885,0.2887,0.2922,0.2923,0.2923,0.2942,0.2942,0.2942,0.2941,0.2948,0.2949,0.2949,0.2955,0,0,0.295,0.2951,0,0,0,0,0,0,0,0,0.2802,0.2808,0.2881,0.2884,0.2886,0.2926,0.2886,0.2932,0.2942,0.292,0.2942,0.2941,0.2937,0.2939,0.2948,0.2955,0.2955,0.295,0.2951,0.2951,0.2951,0,0,0,0,0,0,0,0.2798,0.2806,0.2887,0.2882,0.2885,0.2883,0.289,0.2895,0.2927,0.2922,0.2923,0.2932,0.2938,0.2948,0.2948,0.2955,0.295,0.2951,0.2951,0.2951,0.3007,0.3008,0,0,0,0,0,0,0.2796,0.2803,0.2885,0.2889,0.2844,0.2885,0.2893,0.2912,0.2928,0.2931,0.2932,0.2933,0.2947,0.2948,0.2949,0.2981,0.2951,0.2951,0.2951,0.3006,0.3007,0.3009,0,0,0,0,0,0,0.2794,0.2803,0.2883,0.2847,0.2858,0.2888,0.2909,0.2913,0.2927,0.2937,0.2938,0.2941,0.2947,0.2948,0.2968,0.298,0.2951,0.2952,0.3004,0.3006,0.3008,0.3029,0,0,0,0,0,0,0.279,0.2802,0.2813,0.2848,0.286,0.2906,0.2909,0.2915,0.2933,0.2934,0.2945,0.2945,0.2947,0.2968,0.2969,0.298,0.2952,0.3003,0.3005,0.3008,0.3026,0.3031,0.3035,0,0,0,0,0,0.2786,0.2797,0.2813,0.2823,0.2874,0.2907,0.2913,0.2932,0.2933,0.2942,0.2957,0.2945,0.2983,0.2969,0.297,0.2982,0.3002,0.3005,0.3007,0.3024,0.303,0.3035,0,0,0,0,0,0,0.2748,0.2801,0.2819,0.2845,0.2877,0.291,0.292,0.2934,0.2953,0.2953,0.2959,0.2961,0.2987,0.2984,0.2968,0.3007,0.2991,0.2994,0.3004,0.3009,0.3013,0.301,0.2952,0,0,0,0,0,0.2748,0.2774,0.282,0.284,0.2858,0.289,0.2905,0.2921,0.2944,0.2953,0.2962,0.2977,0.2999,0.3003,0.3019,0.3034,0.3053,0.3044,0.3048,0.3052,0.3052,0.3098,0.3106,0.3018,0.3018,0.3018,0,0,0.2738,0.2771,0.2785,0.2834,0.2861,0.2888,0.2898,0.2924,0.2943,0.2949,0.2973,0.2993,0.3009,0.3035,0.3045,0.3031,0.3092,0.3055,0.3058,0.3056,0.3102,0.311,0.3118,0.302,0.3019,0.3019,0,0,0.2729,0.2764,0.2783,0.2811,0.2855,0.2882,0.2891,0.293,0.2946,0.2973,0.2992,0.302,0.3038,0.3062,0.3074,0.3111,0.3118,0.3114,0.3124,0.3169,0.3177,0.3183,0.3236,0.3247,0.3109,0.3109,0.3109,0,0.2714,0.275,0.2791,0.2815,0.2835,0.2881,0.29,0.2928,0.2967,0.2984,0.298,0.3041,0.3053,0.3098,0.3115,0.3119,0.3149,0.31,0.3174,0.3181,0.3187,0.3239,0.3251,0.311,0.311,0.311,0.311,0,0.2725,0.2751,0.2763,0.2816,0.2842,0.2866,0.2913,0.2942,0.2965,0.2993,0.304,0.3068,0.3103,0.3115,0.3123,0.318,0.3189,0.3179,0.3158,0.3197,0.325,0.3262,0.3112,0.3112,0.3111,0.3111,0,0,0.2688,0.2759,0.2759,0.278,0.2843,0.2863,0.2907,0.2959,0.2986,0.3027,0.3062,0.3111,0.3132,0.3148,0.317,0.3206,0.3283,0.321,0.3212,0.3256,0.3396,0.345,0.3468,0.3286,0.3288,0.329,0.342,0,0.2682,0.2723,0.2759,0.279,0.2816,0.2867,0.2902,0.2953,0.2995,0.3042,0.3091,0.3131,0.3144,0.3163,0.3207,0.3264,0.3314,0.3249,0.3356,0.3359,0.3397,0.3484,0.3425,0.3541,0.3432,0.3434,0.3436,0,0.267,0.2706,0.2734,0.2785,0.2799,0.2821,0.2884,0.2926,0.3009,0.3034,0.3094,0.3138,0.3215,0.3207,0.3335,0.3295,0.3351,0.339,0.3396,0.3444,0.3436,0.3482,0.3567,0.3436,0.3454,0.3453,0.3451,0,0.2617,0.2674,0.2696,0.2714,0.2786,0.2801,0.2846,0.2921,0.2956,0.304,0.3067,0.3163,0.3212,0.3298,0.34,0.337,0.3538,0.3504,0.361,0.3614,0.3585,0.3584,0.3549,0.3597,0.3596,0.3596,0.3596,0,0.2589,0.2598,0.2672,0.2679,0.2702,0.2768,0.2796,0.285,0.293,0.2979,0.3063,0.3123,0.3235,0.3347,0.3425,0.3578,0.3568,0.364,0.3662,0.3594,0.3592,0.3492,0.3405,0.3601,0.36,0.3599,0.3598,0,0.2514,0.2567,0.2586,0.2654,0.2673,0.2688,0.2757,0.2785,0.2868,0.2938,0.2967,0.3109,0.3266,0.3392,0.3547,0.3617,0.3657,0.3795,0.3719,0.373,0.37,0.3617,0.3525,0.3429,0.3935,0.3937,0.3939,0,0.2474,0.2483,0.2542,0.2551,0.2575,0.2614,0.264,0.2735,0.2774,0.2937,0.2969,0.3147,0.327,0.3538,0.3707,0.3887,0.3726,0.3922,0.3856,0.3719,0.3641,0.3468,0.3378,0.3828,0.3829,0.3829,0.383,0,0.2393,0.2415,0.2438,0.2462,0.2481,0.2514,0.257,0.2592,0.2724,0.2805,0.295,0.3072,0.3366,0.355,0.3804,0.3909,0.3733,0.3944,0.3808,0.3576,0.3375,0.3286,0.3719,0.3836,0.3835,0.3835,0.3835,0.3834,0.2314,0.2311,0.2343,0.2358,0.2384,0.2411,0.242,0.2508,0.2588,0.272,0.2884,0.3057,0.3356,0.3724,0.3799,0.389,0.3804,0.3828,0.375,0.3596,0.3457,0.3925,0.406,0.406,0.4061,0.4061,0.4062,0,0.2209,0.2225,0.2239,0.2254,0.2251,0.2308,0.2363,0.2382,0.2462,0.2639,0.2781,0.3083,0.3312,0.3528,0.3759,0.3694,0.3537,0.3593,0.3293,0.3224,0.3667,0.3616,0.3651,0.3651,0.3651,0.3651,0.3651,0.3651,0.2152,0.2132,0.2154,0.2122,0.2137,0.2126,0.2151,0.2216,0.2325,0.2488,0.2651,0.2827,0.3122,0.3379,0.3426,0.3398,0.3108,0.3047,0.2955,0.3227,0.3239,0.3251,0.3182,0.3125,0.3125,0.243,0.2425,0.2421]},{"header":{"parameterUnit":"m.s-1","parameterCategory":2,"la1":30.2991,"la2":30.254,"lo1":-89.0895,"lo2":-89.0444,"dy":0.0017,"dx":0.0017,"nx":28,"ny":28,"refTime":"2024-07-27T03:00:00:Z","depth":"0","parameterNumber":3,"parameterNumberName":"V-component_of_CURRENTS"},"data":[0,0,0,0,0,0,0,0,0,0,0,0,0,0,0,0,0,0,0,0,0,0,0,0,0,0,0,0,0,0,0,0,0,0,0,0,0,0,0,0,0,0,0,0,0,0,0,0,0,0,0,0,0,0,0,0,0,0,-0.0178,-0.0179,0,-0.0215,-0.0216,-0.0216,-0.0239,-0.024,-0.024,-0.024,-0.0315,-0.0316,-0.0318,0,0,0,0,0,0,0,0,0,0,0,0,0,-0.0162,-0.0162,-0.0178,-0.0179,-0.0179,-0.0215,-0.0216,-0.0216,-0.0239,-0.024,-0.024,-0.024,-0.0314,-0.0316,-0.0318,0,0,0,0,0,0,0,0,0,0,0,0,0,-0.0181,-0.0162,-0.0178,-0.0195,-0.0197,-0.0215,-0.0216,-0.0216,-0.0239,-0.024,-0.024,-0.024,-0.0313,-0.0316,-0.0319,-0.0331,0,0,-0.0327,-0.0328,0,0,0,0,0,0,0,0,-0.0179,-0.0181,-0.0192,-0.0194,-0.0196,-0.0223,-0.0237,-0.0257,-0.0239,-0.0223,-0.024,-0.024,-0.0287,-0.0292,-0.0298,-0.0335,-0.0338,-0.0327,-0.0329,-0.033,-0.0331,0,0,0,0,0,0,0,-0.0178,-0.018,-0.0193,-0.0193,-0.0195,-0.0213,-0.0215,-0.0241,-0.0254,-0.0225,-0.0226,-0.0231,-0.0289,-0.0295,-0.03,-0.0339,-0.0327,-0.033,-0.0331,-0.0333,-0.0395,-0.0395,0,0,0,0,0,0,-0.0172,-0.0178,-0.0191,-0.0194,-0.0188,-0.0213,-0.0216,-0.0214,-0.0253,-0.0259,-0.0231,-0.0232,-0.029,-0.0297,-0.0303,-0.0304,-0.033,-0.0333,-0.0334,-0.0395,-0.0395,-0.0395,0,0,0,0,0,0,-0.0171,-0.0172,-0.019,-0.0187,-0.0191,-0.0213,-0.0211,-0.0215,-0.0221,-0.0257,-0.0264,-0.0233,-0.0291,-0.0299,-0.0321,-0.0308,-0.0334,-0.0337,-0.0395,-0.0395,-0.0395,-0.0317,0,0,0,0,0,0,-0.017,-0.0172,-0.0168,-0.0187,-0.0191,-0.0197,-0.0211,-0.0215,-0.0224,-0.0226,-0.0262,-0.0269,-0.0292,-0.0317,-0.0324,-0.0312,-0.0339,-0.0395,-0.0395,-0.0395,-0.032,-0.0314,-0.031,0,0,0,0,0,-0.017,-0.0161,-0.0167,-0.0169,-0.0185,-0.0197,-0.02,-0.0217,-0.0223,-0.0224,-0.0247,-0.0268,-0.0322,-0.0319,-0.0327,-0.0316,-0.0395,-0.0395,-0.0395,-0.0322,-0.0315,-0.031,0,0,0,0,0,0,-0.015,-0.0163,-0.017,-0.0165,-0.0179,-0.0201,-0.0202,-0.0214,-0.0232,-0.0235,-0.0267,-0.0275,-0.0291,-0.0319,-0.0314,-0.0336,-0.0362,-0.0364,-0.0304,-0.0299,-0.0294,-0.0269,-0.0341,0,0,0,0,0,-0.0144,-0.0141,-0.0159,-0.0155,-0.016,-0.0181,-0.0187,-0.02,-0.0219,-0.0227,-0.0249,-0.0277,-0.0298,-0.0309,-0.0336,-0.0346,-0.0363,-0.0347,-0.0342,-0.0338,-0.0325,-0.0339,-0.0334,-0.0394,-0.0394,-0.0394,0,0,-0.0136,-0.0143,-0.0141,-0.0151,-0.0163,-0.0158,-0.0185,-0.0194,-0.0187,-0.0233,-0.0231,-0.0263,-0.0299,-0.0308,-0.0317,-0.0328,-0.0329,-0.0338,-0.0333,-0.0323,-0.0338,-0.0332,-0.0327,-0.0394,-0.0394,-0.0394,0,0,-0.0116,-0.0123,-0.0113,-0.0119,-0.0134,-0.0145,-0.0145,-0.0165,-0.0171,-0.018,-0.0207,-0.0227,-0.0263,-0.0276,-0.029,-0.0277,-0.0305,-0.0292,-0.0242,-0.0256,-0.0251,-0.0246,-0.0254,-0.0251,-0.0286,-0.0286,-0.0286,0,-0.0103,-0.0092,-0.0113,-0.0102,-0.0097,-0.0133,-0.0116,-0.0127,-0.0151,-0.0148,-0.0172,-0.0209,-0.0243,-0.0241,-0.0236,-0.0263,-0.0275,-0.0257,-0.0247,-0.0243,-0.0239,-0.0249,-0.0246,-0.0282,-0.0283,-0.0283,-0.0283,0,-0.0073,-0.0064,-0.0058,-0.0051,-0.005,-0.0045,-0.0058,-0.0061,-0.0076,-0.0088,-0.0097,-0.0141,-0.0161,-0.0177,-0.0202,-0.0192,-0.021,-0.0239,-0.0254,-0.0228,-0.0241,-0.0239,-0.0277,-0.0278,-0.0279,-0.028,0,0,-0.0039,-0.0036,-0.0032,-0.0017,-0.002,-0.0015,0.0001,0.0007,0.0024,-0.0011,0.0011,-0.0032,-0.0061,-0.0079,-0.0116,-0.0127,-0.0117,-0.0165,-0.0168,-0.0159,-0.014,-0.0148,-0.0148,-0.0142,-0.0142,-0.0141,-0.0156,0,-0.0006,0.0025,0.0021,0.0058,0.0076,0.0062,0.0088,0.0088,0.0074,0.0082,0.0039,0.0031,-0.0023,-0.0033,-0.005,-0.01,-0.0111,-0.011,-0.0179,-0.0181,-0.018,-0.0146,-0.0115,-0.0125,-0.0155,-0.0155,-0.0155,0,0.0034,0.0049,0.0092,0.0122,0.0131,0.0151,0.0186,0.0196,0.0194,0.0185,0.0166,0.0126,0.0107,0.005,-0.0007,-0.0004,-0.0062,-0.0105,-0.0107,-0.0138,-0.0186,-0.0159,-0.0122,-0.031,-0.0153,-0.0153,-0.0153,0,0.0077,0.0104,0.0142,0.0152,0.0178,0.0204,0.0216,0.023,0.025,0.0242,0.0251,0.0214,0.0197,0.0127,0.0035,0.0014,-0.0027,-0.0073,-0.0133,-0.0135,-0.0133,-0.0135,-0.0272,-0.0112,-0.0112,-0.0112,-0.0112,0,0.0122,0.0153,0.0164,0.0187,0.0243,0.0244,0.03,0.0305,0.0322,0.0358,0.0299,0.0317,0.0215,0.0172,0.0076,-0.001,0.0001,-0.0108,-0.0133,-0.0107,-0.0106,-0.0292,-0.0381,-0.0112,-0.0112,-0.0112,-0.0112,0,0.0168,0.0173,0.0218,0.025,0.0265,0.0303,0.0349,0.0387,0.0388,0.0433,0.0433,0.0403,0.0355,0.0253,0.015,0.005,-0.0126,-0.0081,-0.0037,-0.0057,-0.0296,-0.038,-0.0499,-0.0575,-0.0145,-0.0145,-0.0146,0,0.0195,0.0221,0.0264,0.0296,0.0313,0.0362,0.0407,0.0422,0.0461,0.0489,0.0521,0.049,0.0492,0.0343,0.0182,0.0037,-0.0126,-0.0065,-0.0106,-0.0292,-0.0405,-0.0465,-0.0526,-0.0074,-0.0074,-0.0074,-0.0073,0,0.0249,0.0263,0.0298,0.0355,0.0405,0.0461,0.0516,0.0559,0.0588,0.0637,0.0684,0.0688,0.0556,0.0441,0.0235,0.0112,-0.0182,-0.0065,-0.0267,-0.0361,-0.0423,-0.0513,-0.0089,-0.007,-0.0071,-0.0071,-0.0071,-0.0071,0.0292,0.0326,0.0368,0.0426,0.0484,0.0558,0.0618,0.0683,0.0768,0.0871,0.0851,0.0932,0.0705,0.0444,0.0203,-0.0179,-0.018,-0.0302,-0.0387,-0.043,-0.0513,-0.0078,-0.0087,-0.0088,-0.0088,-0.0088,-0.0089,0,0.0344,0.0378,0.0435,0.0509,0.0583,0.0598,0.0697,0.0774,0.0894,0.1029,0.1109,0.1124,0.0804,0.0447,-0.0063,-0.0424,-0.0558,-0.0627,-0.0722,-0.0769,-0.0389,-0.0399,-0.0463,-0.0463,-0.0463,-0.0462,-0.0462,-0.0462,0.0378,0.0437,0.0463,0.0586,0.0641,0.075,0.0814,0.0934,0.1057,0.1275,0.1412,0.1482,0.1224,0.0181,-0.0594,-0.0784,-0.1045,-0.1077,-0.1236,-0.1009,-0.0987,-0.0965,-0.0999,-0.1188,-0.1189,-0.1568,-0.1572,-0.1575]}],[{"header":{"parameterUnit":"m.s-1","parameterCategory":2,"la1":30.2991,"la2":30.254,"lo1":-89.0895,"lo2":-89.0444,"dy":0.0017,"dx":0.0017,"nx":28,"ny":28,"refTime":"2024-07-27T03:00:00:Z","depth":"2","parameterNumber":2,"parameterNumberName":"U-component_of_CURRENTS"},"data":[0,0,0,0,0,0,0,0,0,0,0,0,0,0,0,0,0,0,0,0,0,0,0,0,0,0,0,0,0,0,0,0,0,0,0,0,0,0,0,0,0,0,0,0,0,0,0,0,0,0,0,0,0,0,0,0,0,0,0.1287,0.1287,0,0.1332,0.1332,0.1332,0.1321,0.132,0.1319,0.1319,0.1345,0.1346,0.1347,0,0,0,0,0,0,0,0,0,0,0,0,0,0.1196,0.1197,0.1287,0.1287,0.1288,0.1332,0.1332,0.1333,0.1321,0.132,0.1319,0.1318,0.1344,0.1346,0.1347,0,0,0,0,0,0,0,0,0,0,0,0,0,0.1236,0.1198,0.1287,0.1289,0.129,0.1332,0.1332,0.1333,0.1321,0.132,0.1319,0.1318,0.1344,0.1346,0.1348,0.1383,0,0,0.1354,0.1355,0,0,0,0,0,0,0,0,0.1234,0.1239,0.1288,0.1289,0.129,0.1321,0.131,0.1349,0.1321,0.1308,0.1319,0.1317,0.1337,0.1339,0.1348,0.1384,0.1385,0.1354,0.1355,0.1356,0.1357,0,0,0,0,0,0,0,0.1231,0.1237,0.1303,0.1289,0.129,0.1289,0.1293,0.1317,0.1326,0.1309,0.1308,0.1316,0.1337,0.1346,0.1349,0.1386,0.1354,0.1356,0.1357,0.1358,0.1492,0.1494,0,0,0,0,0,0,0.123,0.1235,0.1302,0.1304,0.126,0.1292,0.1297,0.1311,0.1326,0.1328,0.1317,0.1316,0.1343,0.1346,0.135,0.1427,0.1356,0.1358,0.1359,0.149,0.1492,0.1495,0,0,0,0,0,0,0.1228,0.1236,0.13,0.1271,0.1279,0.1295,0.1311,0.1312,0.133,0.1333,0.1334,0.1334,0.1343,0.1347,0.1387,0.1426,0.1359,0.1361,0.1487,0.1491,0.1494,0.1559,0,0,0,0,0,0,0.1225,0.1235,0.1253,0.1271,0.1281,0.1337,0.1312,0.1314,0.1337,0.1335,0.1348,0.1349,0.1342,0.1384,0.1389,0.1428,0.1363,0.1484,0.1489,0.1493,0.1554,0.1565,0.1573,0,0,0,0,0,0.1222,0.125,0.1254,0.1262,0.1303,0.1339,0.1345,0.1349,0.1339,0.1359,0.1368,0.1349,0.1415,0.1388,0.1393,0.1433,0.1482,0.1487,0.1492,0.155,0.1562,0.1573,0,0,0,0,0,0,0.1225,0.1252,0.1257,0.1293,0.132,0.1338,0.136,0.1362,0.1385,0.1385,0.1378,0.1381,0.1434,0.1429,0.1399,0.1487,0.1446,0.1453,0.1489,0.15,0.151,0.1523,0.1364,0,0,0,0,0,0.1235,0.126,0.1286,0.1319,0.1334,0.135,0.1367,0.1373,0.1392,0.1401,0.1412,0.1429,0.1461,0.1475,0.1499,0.1546,0.1572,0.1577,0.1587,0.1595,0.1612,0.168,0.1697,0.1512,0.1512,0.1512,0,0,0.1245,0.1264,0.1279,0.1321,0.134,0.1378,0.1358,0.1392,0.1426,0.1402,0.1454,0.1467,0.1483,0.1536,0.1559,0.1535,0.1667,0.1601,0.1608,0.1621,0.1687,0.1705,0.1721,0.1516,0.1515,0.1514,0,0,0.1275,0.1298,0.1326,0.1355,0.1392,0.1408,0.1421,0.1452,0.1468,0.1516,0.1515,0.1554,0.159,0.1617,0.1632,0.1714,0.1718,0.1719,0.1775,0.1841,0.1857,0.1871,0.195,0.197,0.172,0.172,0.172,0,0.1287,0.1327,0.1343,0.1381,0.1408,0.1424,0.1464,0.1495,0.1535,0.1562,0.1541,0.1624,0.1633,0.171,0.1737,0.1736,0.1777,0.1725,0.1854,0.1868,0.1881,0.1958,0.198,0.1724,0.1723,0.1723,0.1723,0,0.1336,0.1374,0.1397,0.1448,0.1482,0.1521,0.156,0.1598,0.1614,0.1643,0.1717,0.1735,0.1783,0.1795,0.179,0.1893,0.1895,0.1859,0.1821,0.1904,0.198,0.2001,0.1729,0.1728,0.1727,0.1726,0,0,0.1346,0.1414,0.1424,0.1452,0.1518,0.1547,0.1616,0.168,0.1733,0.177,0.1838,0.1894,0.1904,0.1924,0.1929,0.1983,0.2114,0.1965,0.1967,0.2039,0.2283,0.2175,0.2187,0.2098,0.2102,0.2105,0.2306,0,0.1379,0.1443,0.1477,0.1549,0.1584,0.1627,0.1692,0.1754,0.1804,0.1878,0.1914,0.1982,0.1955,0.1984,0.2039,0.2096,0.217,0.2064,0.2196,0.2201,0.209,0.2208,0.2002,0.2153,0.2326,0.233,0.2332,0,0.1414,0.1451,0.1516,0.159,0.1613,0.1665,0.1761,0.1824,0.1933,0.1973,0.2045,0.2075,0.2178,0.2126,0.2283,0.2218,0.2269,0.2302,0.231,0.2199,0.2132,0.2095,0.2185,0.2368,0.2365,0.2362,0.236,0,0.1397,0.1479,0.1524,0.1553,0.1645,0.1689,0.1747,0.1855,0.1916,0.2047,0.2102,0.2209,0.2274,0.2352,0.2423,0.2369,0.259,0.2516,0.2477,0.2471,0.2316,0.2289,0.2643,0.2643,0.2642,0.2642,0.2641,0,0.141,0.1452,0.1521,0.155,0.1616,0.1689,0.1781,0.1857,0.1975,0.2063,0.2153,0.2239,0.2334,0.245,0.2494,0.2568,0.2657,0.2526,0.2523,0.2334,0.2307,0.2492,0.2472,0.2649,0.2648,0.2646,0.2645,0,0.1387,0.1434,0.1491,0.158,0.161,0.1661,0.1778,0.1844,0.1972,0.209,0.2134,0.23,0.2464,0.2561,0.2715,0.2655,0.2735,0.2739,0.2517,0.2481,0.2557,0.2538,0.2713,0.2711,0.2709,0.2708,0.2706,0,0.138,0.1406,0.1491,0.1522,0.1565,0.1645,0.17,0.1825,0.1896,0.2119,0.2169,0.2375,0.2464,0.2657,0.2651,0.2725,0.2799,0.2546,0.2377,0.2588,0.2569,0.2552,0.2536,0.2228,0.2223,0.2219,0.2216,0,0.1363,0.1396,0.1435,0.1492,0.1546,0.1602,0.1692,0.174,0.1901,0.2012,0.2182,0.2273,0.2439,0.241,0.2486,0.2489,0.2502,0.2458,0.2792,0.2207,0.2137,0.2115,0.2115,0.2179,0.2183,0.2185,0.2187,0.2189,0.1344,0.1361,0.141,0.1461,0.1511,0.1555,0.1586,0.1679,0.1779,0.1894,0.2055,0.2125,0.2151,0.2141,0.2149,0.2178,0.2302,0.2193,0.2204,0.222,0.2092,0.2019,0.2019,0.2022,0.2024,0.2026,0.2028,0,0.1315,0.1341,0.1378,0.1429,0.1449,0.1504,0.1573,0.1579,0.1659,0.174,0.1829,0.1701,0.1701,0.182,0.1767,0.174,0.1713,0.1721,0.1672,0.1708,0.1741,0.1587,0.1381,0.1379,0.1378,0.1376,0,0,0.1302,0.1317,0.1335,0.1352,0.139,0.1401,0.1426,0.1433,0.147,0.1433,0.1444,0.1523,0.1664,0.1447,0.145,0.1422,0.1549,0.1379,0.1893,0.1866,0.1896,0.2008,0.181,0,0,0,0,0]},{"header":{"parameterUnit":"m.s-1","parameterCategory":2,"la1":30.2991,"la2":30.254,"lo1":-89.0895,"lo2":-89.0444,"dy":0.0017,"dx":0.0017,"nx":28,"ny":28,"refTime":"2024-07-27T03:00:00:Z","depth":"2","parameterNumber":3,"parameterNumberName":"V-component_of_CURRENTS"},"data":[0,0,0,0,0,0,0,0,0,0,0,0,0,0,0,0,0,0,0,0,0,0,0,0,0,0,0,0,0,0,0,0,0,0,0,0,0,0,0,0,0,0,0,0,0,0,0,0,0,0,0,0,0,0,0,0,0,0,0.0224,0.0223,0,0.0169,0.0169,0.0168,0.0096,0.0094,0.0093,0.0092,-0.0002,-0.0003,-0.0004,0,0,0,0,0,0,0,0,0,0,0,0,0,0.0249,0.0249,0.0224,0.0223,0.0223,0.0169,0.0169,0.0168,0.0096,0.0094,0.0093,0.0092,-0.0001,-0.0003,-0.0004,0,0,0,0,0,0,0,0,0,0,0,0,0,0.022,0.0249,0.0224,0.0181,0.0176,0.017,0.0169,0.0168,0.0096,0.0094,0.0092,0.0091,-0.0001,-0.0003,-0.0005,0.0018,0,0,-0.0011,-0.0012,0,0,0,0,0,0,0,0,0.0222,0.0219,0.0188,0.0184,0.0179,0.0138,0.0143,0.0116,0.0096,0.0126,0.0092,0.009,0.0043,0.0037,0.0031,0.0013,0.0009,-0.0011,-0.0012,-0.0013,-0.0014,0,0,0,0,0,0,0,0.0224,0.0221,0.0202,0.0187,0.0182,0.0158,0.0152,0.0138,0.0094,0.0123,0.0118,0.0113,0.004,0.0033,0.0028,0.0008,-0.0011,-0.0013,-0.0014,-0.0015,-0.0056,-0.0056,0,0,0,0,0,0,0.0234,0.0223,0.0204,0.02,0.0197,0.0159,0.0152,0.0152,0.0095,0.0085,0.0115,0.011,0.0038,0.0031,0.0024,0.0007,-0.0013,-0.0015,-0.0017,-0.0056,-0.0056,-0.0056,0,0,0,0,0,0,0.0235,0.0233,0.0206,0.021,0.0205,0.016,0.0161,0.0152,0.0133,0.0089,0.0077,0.0103,0.0036,0.0027,0.0002,0.0004,-0.0016,-0.0018,-0.0057,-0.0056,-0.0056,-0.0002,0,0,0,0,0,0,0.0236,0.0234,0.024,0.0211,0.0205,0.0204,0.0162,0.0152,0.0133,0.0126,0.0076,0.0066,0.0034,0.0005,-0.0,0.0001,-0.002,-0.0057,-0.0056,-0.0056,-0.0004,0.0,0.0004,0,0,0,0,0,0.0237,0.0254,0.024,0.0238,0.0214,0.0205,0.02,0.0161,0.0135,0.0136,0.0094,0.0066,0.0003,0.0004,-0.0003,-0.0002,-0.0057,-0.0056,-0.0056,-0.0006,-0.0001,0.0003,0,0,0,0,0,0,0.0269,0.0247,0.0232,0.0241,0.0225,0.0193,0.019,0.0165,0.0135,0.0121,0.0074,0.0062,0.0039,0.0015,0.0017,-0.0014,-0.0033,-0.0034,0.0007,0.0012,0.0015,0.0029,-0.0022,0,0,0,0,0,0.0281,0.0283,0.026,0.0267,0.026,0.0226,0.0216,0.0191,0.0161,0.0145,0.0107,0.0067,0.004,0.0022,-0.0004,-0.0014,-0.0039,-0.002,-0.0016,-0.0013,-0.0007,-0.0048,-0.0047,-0.0055,-0.0055,-0.0055,0,0,0.0295,0.0283,0.0284,0.0273,0.0254,0.0255,0.0215,0.0204,0.0198,0.0142,0.0118,0.0081,0.0041,0.0023,0.001,-0.0,-0.0022,-0.0012,-0.0009,-0.0005,-0.0047,-0.0047,-0.0046,-0.0054,-0.0054,-0.0055,0,0,0.0323,0.0314,0.0322,0.0314,0.0292,0.0276,0.0274,0.024,0.0218,0.0198,0.0152,0.0118,0.0077,0.0047,0.0028,0.004,0.0001,0.0028,0.0057,0.0018,0.0018,0.0018,-0.0001,-0.0004,0.0029,0.0029,0.0029,0,0.0337,0.0347,0.0325,0.0329,0.0327,0.0288,0.0297,0.0278,0.0238,0.0227,0.0195,0.0129,0.0089,0.0071,0.0066,0.0049,0.0025,0.0045,0.0023,0.0022,0.0021,0.0001,-0.0002,0.0032,0.0031,0.0031,0.0031,0,0.0367,0.0375,0.038,0.0374,0.0371,0.0374,0.0349,0.0338,0.0303,0.0277,0.0244,0.0186,0.0145,0.0127,0.0096,0.0074,0.0061,0.0034,0.0014,0.0025,0.0004,-0.0001,0.0035,0.0034,0.0034,0.0033,0,0,0.0394,0.0401,0.04,0.041,0.0395,0.0398,0.0397,0.0388,0.0391,0.0334,0.0328,0.0262,0.022,0.0196,0.015,0.0113,0.0082,0.0072,0.0069,0.0059,0.0006,-0.0034,-0.0043,0.0047,0.0046,0.0046,-0.0001,0,0.042,0.0446,0.044,0.0467,0.048,0.0458,0.0467,0.0452,0.0427,0.0413,0.0345,0.0314,0.0251,0.0226,0.0179,0.0112,0.0071,0.0098,-0.0008,-0.0011,-0.0044,-0.0049,-0.0047,-0.0092,-0.0006,-0.0007,-0.0007,0,0.0444,0.0462,0.0493,0.052,0.0524,0.0532,0.0544,0.0548,0.0523,0.05,0.0454,0.0398,0.0337,0.0275,0.0161,0.018,0.0095,0.0037,0.0033,-0.0027,-0.006,-0.0093,-0.0104,-0.0015,-0.0014,-0.0014,-0.0013,0,0.0469,0.0498,0.0527,0.0534,0.0556,0.0565,0.0573,0.0566,0.0582,0.0548,0.0551,0.0465,0.0426,0.0309,0.018,0.0163,0.0063,0.0021,-0.0092,-0.0094,-0.0124,-0.0129,-0.007,-0.007,-0.007,-0.007,-0.007,0,0.0498,0.0521,0.054,0.0557,0.0598,0.0597,0.0635,0.0634,0.0641,0.0678,0.059,0.0606,0.0428,0.035,0.0215,0.0061,0.0083,-0.0086,-0.0115,-0.0104,-0.0107,-0.0069,-0.0068,-0.0072,-0.0071,-0.0071,-0.0071,0,0.0515,0.0528,0.0566,0.0597,0.0609,0.0634,0.0678,0.0717,0.0712,0.0758,0.0747,0.07,0.0603,0.0435,0.0263,0.0113,-0.0035,-0.0098,-0.0063,-0.0089,-0.0174,-0.017,-0.024,-0.0242,-0.0244,-0.0245,-0.0246,0,0.0527,0.0547,0.0593,0.0622,0.0635,0.0675,0.0718,0.074,0.0795,0.0836,0.0876,0.0796,0.077,0.0509,0.0229,-0.0022,-0.0028,-0.0191,-0.0245,-0.0173,-0.0195,-0.0188,-0.0182,-0.0253,-0.0254,-0.0255,-0.0256,0,0.0556,0.0565,0.0601,0.0661,0.0707,0.0775,0.0839,0.0901,0.0952,0.101,0.1095,0.1074,0.0805,0.0538,0.0163,0.0005,-0.0158,-0.0221,-0.0153,-0.0215,-0.0191,-0.021,-0.0203,-0.0264,-0.0263,-0.0263,-0.0262,-0.0262,0.0575,0.0604,0.0651,0.071,0.077,0.0876,0.0954,0.1056,0.1174,0.1231,0.1219,0.1146,0.0814,0.0302,0.0053,-0.022,-0.0223,-0.0342,-0.0336,-0.0331,-0.0328,-0.031,-0.0402,-0.0402,-0.0402,-0.0402,-0.0402,0,0.0605,0.0643,0.0702,0.0788,0.0871,0.0889,0.1042,0.1147,0.132,0.1275,0.1292,0.0944,0.0635,0.032,-0.0121,-0.0388,-0.0378,-0.0431,-0.0378,-0.037,-0.0362,-0.0359,-0.0443,-0.0443,-0.0444,-0.0444,0,0,0.0625,0.0688,0.0725,0.0864,0.0922,0.1052,0.1149,0.1308,0.134,0.131,0.1179,0.0968,0.062,0.0275,-0.0044,-0.024,-0.0236,-0.0264,-0.0213,-0.0107,-0.0096,-0.0302,-0.0288,0,0,0,0,0]}],[{"header":{"parameterUnit":"m.s-1","parameterCategory":2,"la1":30.2991,"la2":30.254,"lo1":-89.0895,"lo2":-89.0444,"dy":0.0017,"dx":0.0017,"nx":28,"ny":28,"refTime":"2024-07-27T03:00:00:Z","depth":"4","parameterNumber":2,"parameterNumberName":"U-component_of_CURRENTS"},"data":[0,0,0,0,0,0,0,0,0,0,0,0,0,0,0,0,0,0,0,0,0,0,0,0,0,0,0,0,0,0,0,0,0,0,0,0,0,0,0,0,0,0,0,0,0,0,0,0,0,0,0,0,0,0,0,0,0,0,0.0583,0.0583,0,0.0595,0.0595,0.0595,0.064,0.0641,0.0643,0.0644,0.0723,0.0724,0.0725,0,0,0,0,0,0,0,0,0,0,0,0,0,0.0552,0.0552,0.0583,0.0583,0.0583,0.0595,0.0595,0.0595,0.064,0.0641,0.0643,0.0644,0.0723,0.0724,0.0725,0,0,0,0,0,0,0,0,0,0,0,0,0,0.0563,0.0552,0.0583,0.0609,0.0611,0.0595,0.0595,0.0595,0.064,0.0642,0.0643,0.0645,0.0722,0.0724,0.0725,0.0698,0,0,0.073,0.073,0,0,0,0,0,0,0,0,0.0562,0.0564,0.0605,0.0607,0.061,0.062,0.0613,0.0634,0.0639,0.0627,0.0644,0.0646,0.0695,0.0698,0.0693,0.0702,0.0706,0.073,0.0731,0.0731,0.0732,0,0,0,0,0,0,0,0.0561,0.0563,0.0586,0.0605,0.0608,0.0604,0.0608,0.0617,0.065,0.0628,0.0632,0.0636,0.0697,0.0691,0.0696,0.0707,0.073,0.0731,0.0732,0.0733,0.0792,0.0793,0,0,0,0,0,0,0.0564,0.0563,0.0585,0.0586,0.0592,0.0603,0.0608,0.0613,0.0649,0.0656,0.0634,0.0638,0.0688,0.0694,0.0699,0.0769,0.0731,0.0733,0.0734,0.0791,0.0792,0.0793,0,0,0,0,0,0,0.0563,0.0566,0.0585,0.0576,0.0579,0.0603,0.0608,0.0612,0.0643,0.0653,0.0662,0.0664,0.069,0.0697,0.0737,0.0769,0.0734,0.0735,0.0791,0.0792,0.0793,0.0846,0,0,0,0,0,0,0.0562,0.0566,0.0574,0.0576,0.0579,0.0603,0.0607,0.0612,0.0641,0.0647,0.0681,0.0688,0.0692,0.0735,0.0738,0.0771,0.0736,0.079,0.0791,0.0792,0.0844,0.0849,0.0854,0,0,0,0,0,0.0561,0.0567,0.0574,0.0578,0.0589,0.0604,0.0606,0.0627,0.0641,0.0659,0.0682,0.0689,0.0745,0.0736,0.074,0.0774,0.0789,0.0791,0.0792,0.0841,0.0848,0.0854,0,0,0,0,0,0,0.0562,0.0572,0.0581,0.0591,0.061,0.0614,0.0626,0.0642,0.067,0.0683,0.0696,0.0705,0.0749,0.0749,0.0739,0.0793,0.0768,0.0771,0.0804,0.0811,0.0816,0.0815,0.0737,0,0,0,0,0,0.0563,0.0571,0.0585,0.0597,0.0606,0.0621,0.0631,0.0649,0.067,0.0685,0.0708,0.073,0.0749,0.0774,0.0784,0.0815,0.0803,0.0838,0.0843,0.0848,0.0849,0.0857,0.0863,0.0798,0.0798,0.0798,0,0,0.0565,0.0573,0.0579,0.0598,0.0609,0.0626,0.0633,0.0659,0.0681,0.0688,0.0731,0.0748,0.0759,0.0795,0.0815,0.0808,0.0858,0.085,0.0854,0.0852,0.0859,0.0865,0.0871,0.0799,0.0799,0.0799,0,0,0.0573,0.0584,0.0595,0.0611,0.0637,0.0645,0.0662,0.0686,0.0709,0.0747,0.0755,0.0788,0.0826,0.0835,0.0845,0.0881,0.0879,0.0897,0.0933,0.0942,0.0947,0.0952,0.0939,0.0942,0.0907,0.0907,0.0907,0,0.0575,0.0594,0.0603,0.062,0.0635,0.0659,0.068,0.0698,0.0737,0.0758,0.0775,0.0827,0.0839,0.0875,0.0894,0.0893,0.0896,0.0913,0.0949,0.0953,0.0957,0.0943,0.0946,0.091,0.091,0.091,0.0909,0,0.0591,0.0612,0.0622,0.0648,0.0664,0.069,0.0714,0.0749,0.0783,0.08,0.0856,0.0873,0.091,0.0921,0.0925,0.0965,0.0956,0.0949,0.0935,0.0967,0.095,0.0952,0.0914,0.0913,0.0912,0.0912,0,0,0.0579,0.0624,0.063,0.0652,0.0685,0.0702,0.0741,0.078,0.0816,0.086,0.0905,0.0943,0.0965,0.0976,0.0989,0.1002,0.103,0.1003,0.1002,0.0992,0.1047,0.104,0.1041,0.1045,0.1046,0.1046,0.1022,0,0.0593,0.0629,0.0648,0.069,0.071,0.0744,0.0777,0.0816,0.0855,0.0903,0.0933,0.0983,0.0982,0.1025,0.1034,0.1034,0.1039,0.1036,0.1015,0.1014,0.1006,0.1045,0.1049,0.1023,0.1024,0.1024,0.1024,0,0.06,0.0627,0.0665,0.0719,0.0732,0.0765,0.0827,0.086,0.0917,0.0958,0.1009,0.1036,0.1077,0.1071,0.1081,0.109,0.1075,0.1063,0.1062,0.1038,0.1011,0.0985,0.1027,0.1027,0.1027,0.1026,0.1026,0,0.0582,0.0638,0.0671,0.0689,0.0749,0.0789,0.0829,0.0883,0.0919,0.1002,0.1046,0.1088,0.113,0.1124,0.1126,0.1114,0.1123,0.1094,0.1061,0.1059,0.1046,0.1042,0.1088,0.1088,0.1088,0.1088,0.1089,0,0.0577,0.0607,0.0677,0.0696,0.075,0.0794,0.0855,0.0908,0.0976,0.1013,0.1079,0.1116,0.1153,0.1167,0.1142,0.1122,0.1138,0.1072,0.1061,0.1068,0.1066,0.1047,0.1042,0.1088,0.1088,0.1088,0.1088,0,0.0541,0.0587,0.0631,0.0711,0.0741,0.0781,0.0871,0.091,0.0989,0.1043,0.1083,0.1153,0.1186,0.12,0.1193,0.1149,0.1124,0.1108,0.1119,0.1107,0.1037,0.1036,0.1049,0.1048,0.1048,0.1048,0.1048,0,0.0525,0.0543,0.0628,0.0658,0.0701,0.0771,0.0814,0.091,0.0941,0.1047,0.1059,0.1144,0.118,0.1154,0.1175,0.1147,0.113,0.1104,0.1064,0.105,0.1038,0.1037,0.1035,0.1047,0.1047,0.1047,0.1047,0,0.0486,0.052,0.0555,0.0616,0.0674,0.0725,0.0794,0.082,0.0918,0.0998,0.1038,0.1077,0.1113,0.1124,0.1143,0.1106,0.1117,0.1101,0.11,0.1061,0.1049,0.1037,0.1036,0.1047,0.1047,0.1047,0.1047,0,0.0456,0.0469,0.0517,0.0567,0.0632,0.0667,0.0711,0.0764,0.0817,0.0937,0.0943,0.1026,0.1096,0.1103,0.11,0.1104,0.1066,0.1011,0.1013,0.1015,0.1022,0.1002,0.0984,0,0,0,0,0,0.0424,0.0434,0.0466,0.052,0.0578,0.0614,0.0689,0.0731,0.0828,0.0839,0.0896,0.0933,0.0981,0.1013,0.1006,0.107,0.1059,0.1056,0.0994,0.1043,0.1044,0.1059,0,0,0,0,0,0,0.0403,0.043,0.0443,0.0468,0.0495,0.0549,0.0598,0.0656,0.0664,0.0767,0.0792,0.088,0.0926,0.0975,0.0987,0.1,0.0943,0.1112,0.111,0.1042,0.1043,0.1044,0.106,0,0,0,0,0]},{"header":{"parameterUnit":"m.s-1","parameterCategory":2,"la1":30.2991,"la2":30.254,"lo1":-89.0895,"lo2":-89.0444,"dy":0.0017,"dx":0.0017,"nx":28,"ny":28,"refTime":"2024-07-27T03:00:00:Z","depth":"4","parameterNumber":3,"parameterNumberName":"V-component_of_CURRENTS"},"data":[0,0,0,0,0,0,0,0,0,0,0,0,0,0,0,0,0,0,0,0,0,0,0,0,0,0,0,0,0,0,0,0,0,0,0,0,0,0,0,0,0,0,0,0,0,0,0,0,0,0,0,0,0,0,0,0,0,0,0.0025,0.0024,0,0.001,0.001,0.001,-0.0006,-0.0006,-0.0006,-0.0006,-0.0078,-0.008,-0.0081,0,0,0,0,0,0,0,0,0,0,0,0,0,0.0049,0.0049,0.0025,0.0024,0.0024,0.001,0.001,0.001,-0.0006,-0.0006,-0.0006,-0.0007,-0.0077,-0.0079,-0.0081,0,0,0,0,0,0,0,0,0,0,0,0,0,0.0037,0.0049,0.0025,0.0014,0.0013,0.001,0.001,0.001,-0.0006,-0.0006,-0.0006,-0.0007,-0.0077,-0.0079,-0.0082,-0.0089,0,0,-0.0089,-0.009,0,0,0,0,0,0,0,0,0.0038,0.0037,0.0016,0.0015,0.0014,0.0003,-0.0007,-0.0026,-0.0005,0.0002,-0.0006,-0.0007,-0.0056,-0.006,-0.0061,-0.0092,-0.0096,-0.009,-0.0091,-0.0092,-0.0093,0,0,0,0,0,0,0,0.0039,0.0037,0.0019,0.0016,0.0015,0.0014,0.0012,-0.0011,-0.0025,0.0001,0.0,-0.0002,-0.0057,-0.0058,-0.0063,-0.0097,-0.0089,-0.0092,-0.0093,-0.0094,-0.0181,-0.0182,0,0,0,0,0,0,0.004,0.0038,0.002,0.0019,0.0025,0.0014,0.0012,0.0007,-0.0024,-0.0029,-0.0002,-0.0003,-0.0054,-0.006,-0.0065,-0.0116,-0.0092,-0.0094,-0.0096,-0.0181,-0.0182,-0.0182,0,0,0,0,0,0,0.004,0.0038,0.002,0.0028,0.0025,0.0014,0.0009,0.0007,-0.0003,-0.0026,-0.0032,-0.0011,-0.0054,-0.0062,-0.0096,-0.0117,-0.0096,-0.0098,-0.018,-0.0181,-0.0182,-0.0192,0,0,0,0,0,0,0.0041,0.0038,0.0035,0.0028,0.0025,0.0011,0.001,0.0007,-0.0003,-0.0005,-0.0035,-0.0042,-0.0055,-0.0092,-0.0098,-0.012,-0.01,-0.0179,-0.018,-0.0182,-0.019,-0.0193,-0.0195,0,0,0,0,0,0.0042,0.0041,0.0035,0.0033,0.0021,0.0011,0.0009,0.0,-0.0003,-0.001,-0.0032,-0.0041,-0.0106,-0.0094,-0.0101,-0.0125,-0.0178,-0.018,-0.0181,-0.0189,-0.0193,-0.0195,0,0,0,0,0,0,0.0049,0.0039,0.0033,0.0028,0.0016,0.0008,0.0006,-0.0003,-0.0023,-0.0028,-0.005,-0.0058,-0.0097,-0.0108,-0.0094,-0.0155,-0.0145,-0.0148,-0.0148,-0.0152,-0.0154,-0.0141,-0.0102,0,0,0,0,0,0.0049,0.0046,0.0033,0.0028,0.0024,0.0013,0.0008,-0.0002,-0.0019,-0.0027,-0.0049,-0.0076,-0.0108,-0.0127,-0.0152,-0.0183,-0.0189,-0.0203,-0.0206,-0.0208,-0.0203,-0.0239,-0.0244,-0.0189,-0.0188,-0.0188,0,0,0.005,0.0045,0.0042,0.0029,0.0023,0.0018,0.0009,-0.0002,-0.0011,-0.0033,-0.0054,-0.0086,-0.0119,-0.0155,-0.0174,-0.0168,-0.0225,-0.021,-0.0212,-0.0205,-0.0242,-0.0247,-0.0252,-0.019,-0.019,-0.0189,0,0,0.0055,0.0046,0.0046,0.0037,0.0024,0.0017,0.0012,-0.0004,-0.0016,-0.0041,-0.0065,-0.0107,-0.0145,-0.0176,-0.0196,-0.0227,-0.0238,-0.0243,-0.0246,-0.0282,-0.0287,-0.0291,-0.0295,-0.03,-0.0244,-0.0244,-0.0244,0,0.0057,0.0055,0.0043,0.0041,0.0037,0.0017,0.0015,0.0001,-0.0027,-0.0041,-0.0049,-0.0124,-0.0154,-0.0206,-0.022,-0.0234,-0.0245,-0.0232,-0.0285,-0.029,-0.0294,-0.0297,-0.0302,-0.0244,-0.0244,-0.0244,-0.0244,0,0.0061,0.0059,0.0059,0.0051,0.0043,0.0037,0.0018,0.0001,-0.0017,-0.0037,-0.0091,-0.0136,-0.018,-0.0205,-0.0224,-0.0277,-0.0272,-0.0284,-0.0275,-0.03,-0.0302,-0.0306,-0.0245,-0.0245,-0.0245,-0.0245,0,0,0.0072,0.0065,0.0065,0.0066,0.0048,0.0044,0.0026,0.0003,-0.0011,-0.0055,-0.0082,-0.0153,-0.0183,-0.0208,-0.0248,-0.0285,-0.0327,-0.0299,-0.03,-0.0296,-0.0388,-0.0367,-0.037,-0.0355,-0.0356,-0.0357,-0.0373,0,0.008,0.0086,0.0075,0.0077,0.008,0.0057,0.0045,0.0017,-0.0013,-0.0045,-0.0108,-0.0149,-0.0183,-0.0213,-0.0259,-0.0314,-0.0342,-0.032,-0.0369,-0.0369,-0.0344,-0.0377,-0.0361,-0.0377,-0.0378,-0.0378,-0.0379,0,0.0089,0.0094,0.0101,0.0097,0.0095,0.009,0.0068,0.0053,0.0,-0.0026,-0.0085,-0.0131,-0.0202,-0.0222,-0.0318,-0.0305,-0.0343,-0.038,-0.0382,-0.0361,-0.0359,-0.035,-0.0388,-0.0387,-0.0387,-0.0386,-0.0385,0,0.0111,0.0111,0.0122,0.012,0.011,0.0105,0.0097,0.0058,0.0049,-0.0014,-0.0032,-0.0124,-0.0163,-0.024,-0.032,-0.0324,-0.0412,-0.0424,-0.0434,-0.0432,-0.0439,-0.0434,-0.048,-0.048,-0.048,-0.048,-0.048,0,0.0126,0.0133,0.0135,0.0141,0.0151,0.0132,0.0132,0.0106,0.0073,0.0064,-0.0017,-0.0048,-0.0172,-0.024,-0.0313,-0.0386,-0.0405,-0.0435,-0.0443,-0.0441,-0.0436,-0.0441,-0.0437,-0.0481,-0.0481,-0.0481,-0.0481,0,0.0143,0.0145,0.016,0.016,0.0164,0.0171,0.0172,0.0169,0.0134,0.012,0.0102,0.0008,-0.0082,-0.0191,-0.031,-0.0361,-0.0441,-0.0457,-0.0426,-0.0431,-0.0433,-0.0429,-0.0469,-0.0469,-0.0468,-0.0468,-0.0468,0,0.015,0.0162,0.0182,0.0198,0.02,0.0212,0.0222,0.0201,0.0201,0.0158,0.0153,0.0064,-0.0006,-0.0146,-0.0274,-0.0404,-0.0422,-0.0451,-0.0466,-0.0432,-0.0436,-0.0432,-0.0428,-0.0467,-0.0467,-0.0467,-0.0467,0,0.0164,0.0174,0.0187,0.0224,0.0244,0.0266,0.0277,0.0285,0.0265,0.0242,0.0203,0.0113,0.0016,-0.0124,-0.0226,-0.0324,-0.0434,-0.0448,-0.045,-0.0464,-0.0431,-0.0434,-0.043,-0.0466,-0.0466,-0.0466,-0.0466,0,0.0174,0.0188,0.0212,0.0243,0.0277,0.0303,0.0308,0.0311,0.0311,0.0272,0.0262,0.0145,0.0071,-0.0081,-0.018,-0.0275,-0.03,-0.0323,-0.0332,-0.0335,-0.0302,-0.0241,-0.0226,0,0,0,0,0,0.018,0.0197,0.0227,0.026,0.0298,0.0316,0.0337,0.0336,0.033,0.0321,0.0295,0.0208,0.0054,-0.003,-0.0118,-0.0188,-0.0329,-0.0295,-0.0363,-0.0459,-0.0461,-0.0446,0,0,0,0,0,0,0.0181,0.021,0.0225,0.0273,0.0301,0.0337,0.0353,0.0348,0.0338,0.0322,0.0239,0.02,0.0041,0.0113,-0.0114,-0.0148,-0.0199,-0.0373,-0.0374,-0.0459,-0.046,-0.0461,-0.0446,0,0,0,0,0]}]]